When you browse on this site, cookies collect data to enhance your experience and personalize the content and advertising you see.
Visit our Privacy Policy to learn more. By continuing to use the site, you agree to this use of cookies and data.
  • In Hungary
  • List of Countries
  • For 7 days
  • Water Temperature
  • Weather Map
  • News
  • Weather Widgets
  • user-avatar
    Login

    Hourly Weather Ostrov

    Today, 20 February, Thursday

    Time Temperature Precipitation Wind Pressure Humidity
    00:00 -2°C° 0 mm 4 mps 728 mmHg 82%
    01:00 -2°C° 0 mm 4 mps 728 mmHg 83%
    02:00 -1°C° 0 mm 3 mps 728 mmHg 86%
    03:00 -1°C° 0 mm 3 mps 728 mmHg 88%
    04:00 -1°C° 0 mm 3 mps 728 mmHg 91%
    05:00 -1°C° 0 mm 3 mps 728 mmHg 91%
    06:00 -1°C° 0 mm 3 mps 728 mmHg 91%
    07:00 0°C° 0 mm 3 mps 727 mmHg 92%
    08:00 +1°C° 0.1 mm 3 mps 727 mmHg 91%
    09:00 +1°C° 0.1 mm 3 mps 728 mmHg 90%
    10:00 +2°C° 0.1 mm 3 mps 728 mmHg 90%
    11:00 +2°C° 0 mm 3 mps 727 mmHg 90%
    12:00 +3°C° 0 mm 3 mps 727 mmHg 90%
    13:00 +3°C° 0 mm 3 mps 727 mmHg 91%
    14:00 +3°C° 0 mm 3 mps 726 mmHg 90%
    15:00 +4°C° 0 mm 3 mps 726 mmHg 90%
    16:00 +4°C° 0 mm 3 mps 725 mmHg 89%
    17:00 +3°C° 0 mm 3 mps 725 mmHg 90%
    18:00 +3°C° 0 mm 3 mps 725 mmHg 91%
    19:00 +3°C° 0 mm 3 mps 724 mmHg 91%
    20:00 +3°C° 0 mm 3 mps 724 mmHg 90%
    21:00 +3°C° 0 mm 4 mps 723 mmHg 89%
    22:00 +3°C° 0 mm 4 mps 723 mmHg 87%
    23:00 +2°C° 0.1 mm 5 mps 723 mmHg 88%

    Tomorrow, 21 February, Friday

    Time Temperature Precipitation Wind Pressure Humidity
    00:00 +3°C° 0.1 mm 6 mps 722 mmHg 89%
    01:00 +3°C° 0.1 mm 6 mps 722 mmHg 90%
    02:00 +2°C° 0.6 mm 7 mps 723 mmHg 88%
    03:00 0°C° 0.6 mm 8 mps 723 mmHg 86%
    04:00 -1°C° 0.6 mm 8 mps 724 mmHg 85%
    05:00 -1°C° 0.2 mm 8 mps 725 mmHg 83%
    06:00 -2°C° 0.2 mm 7 mps 727 mmHg 81%
    07:00 -2°C° 0.2 mm 7 mps 728 mmHg 79%
    14:00 +1°C° 0 mm 6 mps 731 mmHg 70%
    15:00 +1°C° 0 mm 5 mps 731 mmHg 72%
    16:00 0°C° 0 mm 5 mps 731 mmHg 74%
    17:00 0°C° 0 mm 4 mps 731 mmHg 77%
    18:00 -1°C° 0 mm 4 mps 731 mmHg 79%
    19:00 -1°C° 0 mm 4 mps 732 mmHg 82%
    20:00 -1°C° 0 mm 4 mps 732 mmHg 82%
    21:00 -1°C° 0 mm 4 mps 731 mmHg 82%
    22:00 -1°C° 0 mm 4 mps 731 mmHg 83%
    23:00 -1°C° 0 mm 4 mps 731 mmHg 84%

    Day after tomorrow, 22 February, Saturday

    Time Temperature Precipitation Wind Pressure Humidity
    00:00 -1°C° 0 mm 4 mps 731 mmHg 85%
    01:00 -1°C° 0 mm 4 mps 731 mmHg 85%
    02:00 -1°C° 0 mm 4 mps 731 mmHg 86%
    03:00 -1°C° 0 mm 4 mps 730 mmHg 86%
    04:00 -1°C° 0 mm 5 mps 730 mmHg 86%
    05:00 -1°C° 0 mm 5 mps 730 mmHg 85%
    06:00 -1°C° 0 mm 5 mps 729 mmHg 83%
    07:00 -2°C° 0 mm 6 mps 729 mmHg 82%
    08:00 +1°C° 0 mm 6 mps 729 mmHg 75%
    09:00 +2°C° 0 mm 6 mps 729 mmHg 68%
    10:00 +3°C° 0 mm 7 mps 729 mmHg 61%
    11:00 +4°C° 0 mm 7 mps 729 mmHg 58%
    12:00 +5°C° 0 mm 7 mps 728 mmHg 55%
    13:00 +6°C° 0 mm 8 mps 728 mmHg 51%
    14:00 +6°C° 0 mm 8 mps 728 mmHg 52%
    15:00 +6°C° 0 mm 7 mps 727 mmHg 52%
    16:00 +6°C° 0 mm 7 mps 726 mmHg 52%
    17:00 +6°C° 0 mm 7 mps 726 mmHg 55%
    18:00 +5°C° 0 mm 7 mps 726 mmHg 58%
    19:00 +5°C° 0 mm 7 mps 726 mmHg 61%
    20:00 +5°C° 0 mm 7 mps 726 mmHg 66%
    21:00 +4°C° 0 mm 7 mps 726 mmHg 72%
    22:00 +4°C° 0 mm 7 mps 726 mmHg 77%
    23:00 +4°C° 0 mm 7 mps 726 mmHg 78%

    23 February, Sunday

    Time Temperature Precipitation Wind Pressure Humidity
    00:00 +5°C° 0 mm 8 mps 726 mmHg 79%
    01:00 +5°C° 0 mm 8 mps 726 mmHg 80%
    02:00 +5°C° 0.3 mm 8 mps 726 mmHg 81%
    03:00 +5°C° 0.3 mm 8 mps 726 mmHg 82%
    04:00 +5°C° 0.3 mm 8 mps 726 mmHg 83%
    05:00 +5°C° 0.2 mm 8 mps 726 mmHg 82%
    06:00 +5°C° 0.2 mm 8 mps 726 mmHg 81%
    07:00 +4°C° 0.2 mm 7 mps 726 mmHg 81%
    08:00 +4°C° 0.2 mm 8 mps 727 mmHg 82%
    09:00 +4°C° 0.2 mm 8 mps 727 mmHg 83%
    10:00 +4°C° 0.2 mm 8 mps 727 mmHg 84%
    11:00 +3°C° 0.3 mm 7 mps 726 mmHg 87%
    12:00 +3°C° 0.3 mm 7 mps 726 mmHg 89%
    13:00 +3°C° 0.3 mm 7 mps 726 mmHg 92%
    14:00 +3°C° 0.9 mm 6 mps 725 mmHg 92%
    15:00 +3°C° 0.9 mm 5 mps 724 mmHg 93%
    16:00 +4°C° 0.9 mm 4 mps 723 mmHg 94%
    17:00 +5°C° 2.3 mm 4 mps 722 mmHg 94%
    18:00 +5°C° 2.3 mm 4 mps 721 mmHg 94%
    19:00 +5°C° 2.3 mm 4 mps 721 mmHg 94%
    20:00 +5°C° 0.9 mm 5 mps 721 mmHg 92%
    21:00 +4°C° 0.9 mm 6 mps 722 mmHg 90%
    22:00 +3°C° 0.9 mm 7 mps 723 mmHg 88%
    23:00 +3°C° 0.5 mm 7 mps 724 mmHg 89%

    24 February, Monday

    Time Temperature Precipitation Wind Pressure Humidity
    00:00 +1°C° 0.5 mm 8 mps 725 mmHg 90%
    01:00 0°C° 0.5 mm 8 mps 726 mmHg 91%
    02:00 -1°C° 0 mm 7 mps 727 mmHg 89%
    03:00 -1°C° 0 mm 5 mps 728 mmHg 87%
    04:00 -2°C° 0 mm 4 mps 729 mmHg 85%
    05:00 -2°C° 0 mm 4 mps 729 mmHg 85%
    06:00 -1°C° 0 mm 3 mps 730 mmHg 86%
    07:00 -1°C° 0 mm 3 mps 730 mmHg 87%
    08:00 0°C° 0 mm 3 mps 730 mmHg 81%
    09:00 +2°C° 0 mm 2 mps 730 mmHg 75%
    10:00 +3°C° 0 mm 2 mps 731 mmHg 70%
    11:00 +4°C° 0 mm 2 mps 730 mmHg 64%
    12:00 +4°C° 0 mm 3 mps 730 mmHg 58%
    13:00 +5°C° 0 mm 3 mps 729 mmHg 53%
    14:00 +4°C° 0 mm 3 mps 728 mmHg 59%
    15:00 +4°C° 0 mm 3 mps 727 mmHg 65%
    16:00 +3°C° 0 mm 3 mps 726 mmHg 71%
    17:00 +4°C° 0.2 mm 4 mps 726 mmHg 78%
    18:00 +4°C° 0.2 mm 4 mps 725 mmHg 85%
    19:00 +4°C° 0.2 mm 4 mps 724 mmHg 92%
    20:00 +5°C° 0.2 mm 5 mps 723 mmHg 92%
    21:00 +6°C° 0.2 mm 5 mps 723 mmHg 92%
    22:00 +7°C° 0.2 mm 6 mps 722 mmHg 92%
    23:00 +7°C° 0 mm 6 mps 722 mmHg 90%

    25 February, Tuesday

    Time Temperature Precipitation Wind Pressure Humidity
    00:00 +7°C° 0 mm 6 mps 721 mmHg 89%
    01:00 +8°C° 0 mm 7 mps 721 mmHg 87%
    02:00 +8°C° 0.2 mm 6 mps 721 mmHg 88%
    03:00 +7°C° 0.2 mm 6 mps 720 mmHg 89%
    04:00 +7°C° 0.2 mm 5 mps 720 mmHg 90%
    05:00 +7°C° 0.2 mm 5 mps 720 mmHg 89%
    06:00 +7°C° 0.2 mm 5 mps 720 mmHg 89%
    07:00 +7°C° 0.2 mm 5 mps 720 mmHg 89%
    08:00 +7°C° 0.2 mm 5 mps 720 mmHg 89%
    09:00 +8°C° 0.2 mm 5 mps 720 mmHg 88%
    10:00 +8°C° 0.2 mm 5 mps 720 mmHg 88%
    11:00 +8°C° 0.1 mm 5 mps 720 mmHg 87%
    12:00 +8°C° 0.1 mm 5 mps 719 mmHg 86%
    13:00 +8°C° 0.1 mm 6 mps 719 mmHg 85%
    14:00 +7°C° 0.3 mm 6 mps 719 mmHg 86%
    15:00 +7°C° 0.3 mm 6 mps 719 mmHg 88%
    16:00 +6°C° 0.3 mm 5 mps 718 mmHg 89%
    17:00 +6°C° 0.2 mm 5 mps 718 mmHg 89%
    18:00 +6°C° 0.2 mm 5 mps 718 mmHg 89%
    19:00 +6°C° 0.2 mm 4 mps 718 mmHg 89%
    20:00 +6°C° 0.3 mm 4 mps 717 mmHg 89%
    21:00 +6°C° 0.3 mm 4 mps 717 mmHg 90%
    22:00 +6°C° 0.3 mm 4 mps 716 mmHg 90%
    23:00 +6°C° 0.5 mm 5 mps 716 mmHg 90%
    Show more